NOAA 17 DEB, 48175

Orbit data source: Space-Track

NOAA 17 DEB, 48175 is space debris in SSO originally from a launch on Mon, 24 Jun 2002 UTC launched from the Air Force Western Test Range (AFWTR). Debris objects in space refer to the collection of defunct objects orbiting the Earth. Examples of debris include non-operational satellites, rocket bodies, and fragments generated from explosions, collisions, or faulty payload assembly.

Loading next visibility...
Identifier
48175, 2002-032Q
Orbit
SSO
Country
Flag of USUS
Related business
Manufacturer
Unknown
Mission
Spacecraft
Bus & Motor
Unknown
Mass
Unknown
Launch date (UTC)
2002-06-24 (24 years ago)
Launch vehicle
Unknown
Launch site
Air Force Western Test Range (AFWTR)
Object type
Payload
Rocket body
Debris
Shape & HBR
Unknown shape, 0.1 m
Radar Cross Section
Medium (>0.1 m² and <1 m²)

Expand to show TLE details & history
Last TLE update: 2 days ago

TLE from 2 days ago
0 NOAA 17 DEB
1 48175U 02032Q   26171.40200670  .00007679  00000-0  16603-2 0  9995
2 48175  98.7355 155.1074 0013602 264.7226  95.2419 14.58514487275313
Epoch: 2026-06-20T09:38Z
TLE epoch observation values (Epoch: 2026-06-20T09:38:53.378Z)
Latitude
-0.00011°
Longitude
101.76786°
Altitude
701.833 km
Speed
7.505 km/s
True Right ascension
10h 20m 25s
True Declination
0° 00' 00"
Sunlit
Object was in daylight at epoch
Visualization orbit readout
Latitude
Unknown
Longitude
Unknown
Altitude
Unknown
Speed
Unknown
Apparent Right ascension
Unknown
Apparent Declination
Unknown
Sunlit
N/A
Visualization observer readout
Local Sidereal Time
23:19:45
Azimuth
Unknown
Elevation
Unknown
Doppler factor
Unknown
Orbital elements
Apogee altitude
704.704 km
Perigee altitude
685.462 km
Semi-major axis
7,073.22 km
Eccentricity
0.00136
Inclination
98.7355°
RAAN
155.1074°
Arg. of periapsis
264.7226°
True anomaly
95.39709°
Mean anomaly
95.2419°
Eccentric anomaly
95.3195°
Mean motion
3.64853 °/min
Orbital period
98.67 mins
BSTAR
0.0016603
Loading maneuver chart data...
Computing Atmospheric mass density...

Documentation

Showing up to 5 results
|